Printer-friendly version

IAU Minor Planet Center

Minor Planet Center

(187) Lamberta

Orbital Elements

The following orbital elements are taken from MPC 25186:
  (187) Lamberta
Epoch 2000 Feb. 26.0 TT = JDT 2451600.5  (M-c)          Bowell
M 349.09328              (2000.0)            P               Q
n   0.21825933     Peri.  195.41100     -0.79657593     +0.60062015
a   2.7320428      Node    21.94484     -0.53340124     -0.64478832
e   0.2371762      Incl.   10.59582     -0.28451696     -0.47276152
P   4.52           H    8.16          G   0.15           U   1
From 54 observations at 28 oppositions, 1902-1993, mean residual 0".89.
An explanation of the orbital elements is available.

These orbital elements are also available in forms suitable for loading into a number of popular planetarium-type software programs.


Ephemeris

The following ephemeris is at intervals of five days. A daily ephemeris covering the same time interval is also available.

Date    TT    R. A. (2000) Decl.     Delta      r     Elong.  Phase     V
 
2000 02 26    14 52.10   -15 46.2    1.530    2.104   111.4    26.0    11.9
2000 03 02    14 55.59   -16 29.2    1.474    2.100   115.4    25.2    11.8
2000 03 07    14 58.38   -17 11.1    1.421    2.097   119.6    24.3    11.7
2000 03 12    15 00.43   -17 51.9    1.370    2.094   123.9    23.2    11.5
2000 03 17    15 01.67   -18 31.6    1.322    2.091   128.4    21.9    11.4
2000 03 22    15 02.07   -19 09.9    1.277    2.089   133.1    20.4    11.3
2000 03 27    15 01.60   -19 46.8    1.236    2.087   138.0    18.7    11.2
2000 04 01    15 00.24   -20 21.9    1.199    2.086   143.0    16.8    11.0
2000 04 06    14 58.00   -20 54.8    1.167    2.085   148.2    14.7    10.9
2000 04 11    14 54.93   -21 25.3    1.139    2.084   153.5    12.4    10.8
2000 04 16    14 51.13   -21 53.0    1.116    2.084   158.8    10.0    10.6
2000 04 21    14 46.71   -22 17.6    1.100    2.084   164.1     7.6    10.5
2000 04 26    14 41.84   -22 38.8    1.088    2.085   168.9     5.3    10.4
2000 05 01    14 36.70   -22 56.5    1.083    2.086   172.1     3.8    10.3
2000 05 06    14 31.49   -23 10.8    1.084    2.087   171.6     4.0    10.3
2000 05 11    14 26.45   -23 22.0    1.091    2.089   167.9     5.8    10.4
2000 05 16    14 21.76   -23 30.8    1.103    2.091   163.0     8.1    10.5
2000 05 21    14 17.60   -23 37.8    1.122    2.094   157.8    10.5    10.7
2000 05 26    14 14.11   -23 43.6    1.145    2.097   152.6    12.9    10.8
2000 05 31    14 11.40   -23 48.9    1.174    2.100   147.5    15.1    11.0
2000 06 05    14 09.53   -23 54.5    1.207    2.104   142.5    17.1    11.1
2000 06 10    14 08.54   -24 01.0    1.244    2.108   137.7    18.9    11.2
2000 06 15    14 08.45   -24 08.7    1.285    2.113   133.1    20.6    11.3
2000 06 20    14 09.23   -24 18.1    1.329    2.118   128.6    22.0    11.5
2000 06 25    14 10.85   -24 29.2    1.376    2.123   124.4    23.3    11.6
2000 06 30    14 13.27   -24 42.2    1.426    2.128   120.3    24.4    11.7
2000 07 05    14 16.44   -24 57.1    1.478    2.134   116.4    25.3    11.8

Back to Bright Minor Planets

Astronomical Headlines Index


Valid HTML 4.01!